iso_date,epoch_date,Year,Hour,Min,DOY,POS_DOY,Lat,Lon,BP,Ts,Ta,has_bp,has_ts,has_ta,BuoyID,Buoy_Type,Buoy_Owner,Logistics,Hemisphere
2020-09-02T09:00:00Z,1599037200,2020,9,0,246.375,246.375,88.4315,117.589,-999.00,-999.00,-999.0,no,no,no,300534061805890,unknown,unknown,unknown,North
2020-09-02T09:29:57Z,1599038997,2020,9,30,246.3958,246.3958,88.4334,117.6294,-999.00,-999.00,-999.0,no,no,no,300534061805890,unknown,unknown,unknown,North
2020-09-02T10:00:02Z,1599040803,2020,10,0,246.4167,246.4167,88.4354,117.6676,-999.00,-999.00,-999.0,no,no,no,300534061805890,unknown,unknown,unknown,North
2020-09-02T10:30:00Z,1599042600,2020,10,30,246.4375,246.4375,88.4373,117.7025,-999.00,-999.00,-999.0,no,no,no,300534061805890,unknown,unknown,unknown,North
2020-09-02T10:59:57Z,1599044397,2020,11,0,246.4583,246.4583,88.4394,117.7358,-999.00,-999.00,-999.0,no,no,no,300534061805890,unknown,unknown,unknown,North
2020-09-02T11:30:02Z,1599046203,2020,11,30,246.4792,246.4792,88.4416,117.7659,-999.00,-999.00,-999.0,no,no,no,300534061805890,unknown,unknown,unknown,North
2020-09-02T12:00:00Z,1599048000,2020,12,0,246.5,246.5,88.444,117.7965,-999.00,-999.00,-999.0,no,no,no,300534061805890,unknown,unknown,unknown,North
2020-09-02T12:29:57Z,1599049797,2020,12,30,246.5208,246.5208,88.4465,117.8273,-999.00,-999.00,-999.0,no,no,no,300534061805890,unknown,unknown,unknown,North
2020-09-02T13:00:02Z,1599051603,2020,13,0,246.5417,246.5417,88.4492,117.8605,-999.00,-999.00,-999.0,no,no,no,300534061805890,unknown,unknown,unknown,North
2020-09-02T13:30:00Z,1599053400,2020,13,30,246.5625,246.5625,88.4521,117.8984,-999.00,-999.00,-999.0,no,no,no,300534061805890,unknown,unknown,unknown,North
2020-09-02T13:59:57Z,1599055197,2020,14,0,246.5833,246.5833,88.455,117.9394,-999.00,-999.00,-999.0,no,no,no,300534061805890,unknown,unknown,unknown,North
2020-09-02T14:30:02Z,1599057003,2020,14,30,246.6042,246.6042,88.458,117.9871,-999.00,-999.00,-999.0,no,no,no,300534061805890,unknown,unknown,unknown,North
2020-09-02T15:00:00Z,1599058800,2020,15,0,246.625,246.625,88.4611,118.0399,-999.00,-999.00,-999.0,no,no,no,300534061805890,unknown,unknown,unknown,North
2020-09-02T15:29:57Z,1599060597,2020,15,30,246.6458,246.6458,88.4642,118.1006,-999.00,-999.00,-999.0,no,no,no,300534061805890,unknown,unknown,unknown,North
2020-09-02T16:00:02Z,1599062403,2020,16,0,246.6667,246.6667,88.4673,118.1676,-999.00,-999.00,-999.0,no,no,no,300534061805890,unknown,unknown,unknown,North
2020-09-02T16:30:00Z,1599064200,2020,16,30,246.6875,246.6875,88.4702,118.2359,-999.00,-999.00,-999.0,no,no,no,300534061805890,unknown,unknown,unknown,North
2020-09-02T16:59:57Z,1599065997,2020,17,0,246.7083,246.7083,88.4731,118.3082,-999.00,-999.00,-999.0,no,no,no,300534061805890,unknown,unknown,unknown,North
2020-09-02T17:30:02Z,1599067803,2020,17,30,246.7292,246.7292,88.476,118.3803,-999.00,-999.00,-999.0,no,no,no,300534061805890,unknown,unknown,unknown,North
2020-09-02T18:00:00Z,1599069600,2020,18,0,246.75,246.75,88.4789,118.4521,-999.00,-999.00,-999.0,no,no,no,300534061805890,unknown,unknown,unknown,North
2020-09-02T18:29:57Z,1599071397,2020,18,30,246.7708,246.7708,88.4817,118.523,-999.00,-999.00,-999.0,no,no,no,300534061805890,unknown,unknown,unknown,North
2020-09-02T19:00:02Z,1599073203,2020,19,0,246.7917,246.7917,88.4845,118.5896,-999.00,-999.00,-999.0,no,no,no,300534061805890,unknown,unknown,unknown,North
2020-09-02T19:30:00Z,1599075000,2020,19,30,246.8125,246.8125,88.4873,118.6502,-999.00,-999.00,-999.0,no,no,no,300534061805890,unknown,unknown,unknown,North
2020-09-02T19:59:57Z,1599076797,2020,20,0,246.8333,246.8333,88.49,118.7013,-999.00,-999.00,-999.0,no,no,no,300534061805890,unknown,unknown,unknown,North
2020-09-02T20:30:02Z,1599078603,2020,20,30,246.8542,246.8542,88.4927,118.744,-999.00,-999.00,-999.0,no,no,no,300534061805890,unknown,unknown,unknown,North
2020-09-02T21:00:00Z,1599080400,2020,21,0,246.875,246.875,88.4956,118.7812,-999.00,-999.00,-999.0,no,no,no,300534061805890,unknown,unknown,unknown,North
2020-09-02T21:29:57Z,1599082197,2020,21,30,246.8958,246.8958,88.4986,118.8141,-999.00,-999.00,-999.0,no,no,no,300534061805890,unknown,unknown,unknown,North
2020-09-02T22:00:02Z,1599084003,2020,22,0,246.9167,246.9167,88.5017,118.8442,-999.00,-999.00,-999.0,no,no,no,300534061805890,unknown,unknown,unknown,North
2020-09-02T22:30:00Z,1599085800,2020,22,30,246.9375,246.9375,88.5049,118.8742,-999.00,-999.00,-999.0,no,no,no,300534061805890,unknown,unknown,unknown,North
2020-09-02T22:59:57Z,1599087597,2020,23,0,246.9583,246.9583,88.5083,118.9035,-999.00,-999.00,-999.0,no,no,no,300534061805890,unknown,unknown,unknown,North
2020-09-02T23:30:02Z,1599089403,2020,23,30,246.9792,246.9792,88.5116,118.9327,-999.00,-999.00,-999.0,no,no,no,300534061805890,unknown,unknown,unknown,North
2020-09-03T00:00:00Z,1599091200,2020,0,0,247.0,247.0,88.5151,118.9601,-999.00,-999.00,-999.0,no,no,no,300534061805890,unknown,unknown,unknown,North
2020-09-03T00:29:57Z,1599092997,2020,0,30,247.0208,247.0208,88.5187,118.9908,-999.00,-999.00,-999.0,no,no,no,300534061805890,unknown,unknown,unknown,North
2020-09-03T01:00:02Z,1599094803,2020,1,0,247.0417,247.0417,88.5224,119.0255,-999.00,-999.00,-999.0,no,no,no,300534061805890,unknown,unknown,unknown,North
2020-09-03T01:30:00Z,1599096600,2020,1,30,247.0625,247.0625,88.5261,119.0653,-999.00,-999.00,-999.0,no,no,no,300534061805890,unknown,unknown,unknown,North
2020-09-03T01:59:57Z,1599098397,2020,2,0,247.0833,247.0833,88.5297,119.1096,-999.00,-999.00,-999.0,no,no,no,300534061805890,unknown,unknown,unknown,North
2020-09-03T02:30:02Z,1599100203,2020,2,30,247.1042,247.1042,88.5335,119.1584,-999.00,-999.00,-999.0,no,no,no,300534061805890,unknown,unknown,unknown,North
2020-09-03T03:00:00Z,1599102000,2020,3,0,247.125,247.125,88.5373,119.2123,-999.00,-999.00,-999.0,no,no,no,300534061805890,unknown,unknown,unknown,North
2020-09-03T03:29:57Z,1599103797,2020,3,30,247.1458,247.1458,88.541,119.2747,-999.00,-999.00,-999.0,no,no,no,300534061805890,unknown,unknown,unknown,North
2020-09-03T04:00:02Z,1599105603,2020,4,0,247.1667,247.1667,88.5448,119.343,-999.00,-999.00,-999.0,no,no,no,300534061805890,unknown,unknown,unknown,North
2020-09-03T04:30:00Z,1599107400,2020,4,30,247.1875,247.1875,88.5484,119.4136,-999.00,-999.00,-999.0,no,no,no,300534061805890,unknown,unknown,unknown,North
2020-09-03T04:59:57Z,1599109197,2020,5,0,247.2083,247.2083,88.5519,119.4869,-999.00,-999.00,-999.0,no,no,no,300534061805890,unknown,unknown,unknown,North
2020-09-03T05:30:02Z,1599111003,2020,5,30,247.2292,247.2292,88.5554,119.5596,-999.00,-999.00,-999.0,no,no,no,300534061805890,unknown,unknown,unknown,North
2020-09-03T06:00:00Z,1599112800,2020,6,0,247.25,247.25,88.5587,119.6317,-999.00,-999.00,-999.0,no,no,no,300534061805890,unknown,unknown,unknown,North
2020-09-03T06:29:57Z,1599114597,2020,6,30,247.2708,247.2708,88.5621,119.7015,-999.00,-999.00,-999.0,no,no,no,300534061805890,unknown,unknown,unknown,North
2020-09-03T07:00:02Z,1599116403,2020,7,0,247.2917,247.2917,88.5654,119.7686,-999.00,-999.00,-999.0,no,no,no,300534061805890,unknown,unknown,unknown,North
2020-09-03T07:30:00Z,1599118200,2020,7,30,247.3125,247.3125,88.5685,119.828,-999.00,-999.00,-999.0,no,no,no,300534061805890,unknown,unknown,unknown,North
2020-09-03T07:59:57Z,1599119997,2020,8,0,247.3333,247.3333,88.5715,119.8814,-999.00,-999.00,-999.0,no,no,no,300534061805890,unknown,unknown,unknown,North
2020-09-03T08:30:02Z,1599121803,2020,8,30,247.3542,247.3542,88.5746,119.9294,-999.00,-999.00,-999.0,no,no,no,300534061805890,unknown,unknown,unknown,North
2020-09-03T09:00:00Z,1599123600,2020,9,0,247.375,247.375,88.5775,119.9708,-999.00,-999.00,-999.0,no,no,no,300534061805890,unknown,unknown,unknown,North
2020-09-03T09:29:57Z,1599125397,2020,9,30,247.3958,247.3958,88.5805,120.0038,-999.00,-999.00,-999.0,no,no,no,300534061805890,unknown,unknown,unknown,North
2020-09-03T10:00:02Z,1599127203,2020,10,0,247.4167,247.4167,88.5836,120.029,-999.00,-999.00,-999.0,no,no,no,300534061805890,unknown,unknown,unknown,North
2020-09-03T10:30:00Z,1599129000,2020,10,30,247.4375,247.4375,88.5867,120.0479,-999.00,-999.00,-999.0,no,no,no,300534061805890,unknown,unknown,unknown,North
2020-09-03T10:59:57Z,1599130797,2020,11,0,247.4583,247.4583,88.5899,120.0623,-999.00,-999.00,-999.0,no,no,no,300534061805890,unknown,unknown,unknown,North
2020-09-03T11:30:02Z,1599132603,2020,11,30,247.4792,247.4792,88.5932,120.0743,-999.00,-999.00,-999.0,no,no,no,300534061805890,unknown,unknown,unknown,North
2020-09-03T12:00:00Z,1599134400,2020,12,0,247.5,247.5,88.5966,120.0865,-999.00,-999.00,-999.0,no,no,no,300534061805890,unknown,unknown,unknown,North
2020-09-03T12:29:57Z,1599136197,2020,12,30,247.5208,247.5208,88.6001,120.099,-999.00,-999.00,-999.0,no,no,no,300534061805890,unknown,unknown,unknown,North
2020-09-03T13:00:02Z,1599138003,2020,13,0,247.5417,247.5417,88.6037,120.1128,-999.00,-999.00,-999.0,no,no,no,300534061805890,unknown,unknown,unknown,North
2020-09-03T13:30:00Z,1599139800,2020,13,30,247.5625,247.5625,88.6073,120.1235,-999.00,-999.00,-999.0,no,no,no,300534061805890,unknown,unknown,unknown,North
2020-09-03T13:59:57Z,1599141597,2020,14,0,247.5833,247.5833,88.611,120.1339,-999.00,-999.00,-999.0,no,no,no,300534061805890,unknown,unknown,unknown,North
2020-09-03T14:30:02Z,1599143403,2020,14,30,247.6042,247.6042,88.6146,120.1474,-999.00,-999.00,-999.0,no,no,no,300534061805890,unknown,unknown,unknown,North
2020-09-03T15:00:00Z,1599145200,2020,15,0,247.625,247.625,88.6183,120.1639,-999.00,-999.00,-999.0,no,no,no,300534061805890,unknown,unknown,unknown,North
2020-09-03T15:29:57Z,1599146997,2020,15,30,247.6458,247.6458,88.622,120.1845,-999.00,-999.00,-999.0,no,no,no,300534061805890,unknown,unknown,unknown,North
2020-09-03T16:00:02Z,1599148803,2020,16,0,247.6667,247.6667,88.6259,120.2113,-999.00,-999.00,-999.0,no,no,no,300534061805890,unknown,unknown,unknown,North
2020-09-03T16:30:00Z,1599150600,2020,16,30,247.6875,247.6875,88.6296,120.2437,-999.00,-999.00,-999.0,no,no,no,300534061805890,unknown,unknown,unknown,North
2020-09-03T16:59:57Z,1599152397,2020,17,0,247.7083,247.7083,88.6335,120.2856,-999.00,-999.00,-999.0,no,no,no,300534061805890,unknown,unknown,unknown,North
2020-09-03T17:30:02Z,1599154203,2020,17,30,247.7292,247.7292,88.6373,120.3327,-999.00,-999.00,-999.0,no,no,no,300534061805890,unknown,unknown,unknown,North
2020-09-03T18:00:00Z,1599156000,2020,18,0,247.75,247.75,88.6409,120.3847,-999.00,-999.00,-999.0,no,no,no,300534061805890,unknown,unknown,unknown,North
2020-09-03T18:29:57Z,1599157797,2020,18,30,247.7708,247.7708,88.6444,120.436,-999.00,-999.00,-999.0,no,no,no,300534061805890,unknown,unknown,unknown,North
2020-09-03T19:00:02Z,1599159603,2020,19,0,247.7917,247.7917,88.6477,120.4849,-999.00,-999.00,-999.0,no,no,no,300534061805890,unknown,unknown,unknown,North
2020-09-03T19:30:00Z,1599161400,2020,19,30,247.8125,247.8125,88.6509,120.53,-999.00,-999.00,-999.0,no,no,no,300534061805890,unknown,unknown,unknown,North
2020-09-03T19:59:57Z,1599163197,2020,20,0,247.8333,247.8333,88.6538,120.5687,-999.00,-999.00,-999.0,no,no,no,300534061805890,unknown,unknown,unknown,North
2020-09-03T20:30:02Z,1599165003,2020,20,30,247.8542,247.8542,88.6566,120.6009,-999.00,-999.00,-999.0,no,no,no,300534061805890,unknown,unknown,unknown,North
2020-09-03T21:00:00Z,1599166800,2020,21,0,247.875,247.875,88.6592,120.626,-999.00,-999.00,-999.0,no,no,no,300534061805890,unknown,unknown,unknown,North
2020-09-03T21:29:57Z,1599168597,2020,21,30,247.8958,247.8958,88.6616,120.6464,-999.00,-999.00,-999.0,no,no,no,300534061805890,unknown,unknown,unknown,North
2020-09-03T22:00:02Z,1599170403,2020,22,0,247.9167,247.9167,88.664,120.6604,-999.00,-999.00,-999.0,no,no,no,300534061805890,unknown,unknown,unknown,North
2020-09-03T22:30:00Z,1599172200,2020,22,30,247.9375,247.9375,88.6661,120.6632,-999.00,-999.00,-999.0,no,no,no,300534061805890,unknown,unknown,unknown,North
2020-09-03T22:59:57Z,1599173997,2020,23,0,247.9583,247.9583,88.6682,120.6577,-999.00,-999.00,-999.0,no,no,no,300534061805890,unknown,unknown,unknown,North
2020-09-03T23:30:02Z,1599175803,2020,23,30,247.9792,247.9792,88.6704,120.6428,-999.00,-999.00,-999.0,no,no,no,300534061805890,unknown,unknown,unknown,North
2020-09-04T00:00:00Z,1599177600,2020,0,0,248.0,248.0,88.6726,120.6226,-999.00,-999.00,-999.0,no,no,no,300534061805890,unknown,unknown,unknown,North
2020-09-04T00:29:57Z,1599179397,2020,0,30,248.0208,248.0208,88.6748,120.6004,-999.00,-999.00,-999.0,no,no,no,300534061805890,unknown,unknown,unknown,North
2020-09-04T01:00:02Z,1599181203,2020,1,0,248.0417,248.0417,88.6771,120.5823,-999.00,-999.00,-999.0,no,no,no,300534061805890,unknown,unknown,unknown,North
2020-09-04T01:30:00Z,1599183000,2020,1,30,248.0625,248.0625,88.6796,120.5688,-999.00,-999.00,-999.0,no,no,no,300534061805890,unknown,unknown,unknown,North
2020-09-04T01:59:57Z,1599184797,2020,2,0,248.0833,248.0833,88.682,120.5619,-999.00,-999.00,-999.0,no,no,no,300534061805890,unknown,unknown,unknown,North
2020-09-04T02:30:02Z,1599186603,2020,2,30,248.1042,248.1042,88.6847,120.5634,-999.00,-999.00,-999.0,no,no,no,300534061805890,unknown,unknown,unknown,North
2020-09-04T03:00:00Z,1599188400,2020,3,0,248.125,248.125,88.6873,120.575,-999.00,-999.00,-999.0,no,no,no,300534061805890,unknown,unknown,unknown,North
2020-09-04T03:29:57Z,1599190197,2020,3,30,248.1458,248.1458,88.6899,120.5923,-999.00,-999.00,-999.0,no,no,no,300534061805890,unknown,unknown,unknown,North
2020-09-04T04:00:02Z,1599192003,2020,4,0,248.1667,248.1667,88.6926,120.6196,-999.00,-999.00,-999.0,no,no,no,300534061805890,unknown,unknown,unknown,North
2020-09-04T04:30:00Z,1599193800,2020,4,30,248.1875,248.1875,88.695,120.6532,-999.00,-999.00,-999.0,no,no,no,300534061805890,unknown,unknown,unknown,North
2020-09-04T04:59:57Z,1599195597,2020,5,0,248.2083,248.2083,88.6973,120.691,-999.00,-999.00,-999.0,no,no,no,300534061805890,unknown,unknown,unknown,North
2020-09-04T05:30:02Z,1599197403,2020,5,30,248.2292,248.2292,88.6993,120.7285,-999.00,-999.00,-999.0,no,no,no,300534061805890,unknown,unknown,unknown,North
2020-09-04T06:00:00Z,1599199200,2020,6,0,248.25,248.25,88.701,120.7601,-999.00,-999.00,-999.0,no,no,no,300534061805890,unknown,unknown,unknown,North
2020-09-04T06:29:57Z,1599200997,2020,6,30,248.2708,248.2708,88.7027,120.7861,-999.00,-999.00,-999.0,no,no,no,300534061805890,unknown,unknown,unknown,North
2020-09-04T07:00:02Z,1599202803,2020,7,0,248.2917,248.2917,88.7044,120.8083,-999.00,-999.00,-999.0,no,no,no,300534061805890,unknown,unknown,unknown,North
2020-09-04T07:30:00Z,1599204600,2020,7,30,248.3125,248.3125,88.7061,120.8185,-999.00,-999.00,-999.0,no,no,no,300534061805890,unknown,unknown,unknown,North
2020-09-04T07:59:57Z,1599206397,2020,8,0,248.3333,248.3333,88.7078,120.8231,-999.00,-999.00,-999.0,no,no,no,300534061805890,unknown,unknown,unknown,North
2020-09-04T08:30:02Z,1599208203,2020,8,30,248.3542,248.3542,88.7094,120.8216,-999.00,-999.00,-999.0,no,no,no,300534061805890,unknown,unknown,unknown,North
2020-09-04T09:00:00Z,1599210000,2020,9,0,248.375,248.375,88.711,120.8132,-999.00,-999.00,-999.0,no,no,no,300534061805890,unknown,unknown,unknown,North
2020-09-04T09:29:57Z,1599211797,2020,9,30,248.3958,248.3958,88.7127,120.7937,-999.00,-999.00,-999.0,no,no,no,300534061805890,unknown,unknown,unknown,North
2020-09-04T10:00:02Z,1599213603,2020,10,0,248.4167,248.4167,88.7146,120.7655,-999.00,-999.00,-999.0,no,no,no,300534061805890,unknown,unknown,unknown,North
2020-09-04T10:30:00Z,1599215400,2020,10,30,248.4375,248.4375,88.7163,120.7313,-999.00,-999.00,-999.0,no,no,no,300534061805890,unknown,unknown,unknown,North
2020-09-04T10:59:57Z,1599217197,2020,11,0,248.4583,248.4583,88.7181,120.6922,-999.00,-999.00,-999.0,no,no,no,300534061805890,unknown,unknown,unknown,North
2020-09-04T11:30:02Z,1599219003,2020,11,30,248.4792,248.4792,88.7198,120.6507,-999.00,-999.00,-999.0,no,no,no,300534061805890,unknown,unknown,unknown,North
2020-09-04T12:00:00Z,1599220800,2020,12,0,248.5,248.5,88.7215,120.6055,-999.00,-999.00,-999.0,no,no,no,300534061805890,unknown,unknown,unknown,North
2020-09-04T12:29:57Z,1599222597,2020,12,30,248.5208,248.5208,88.7234,120.5546,-999.00,-999.00,-999.0,no,no,no,300534061805890,unknown,unknown,unknown,North
2020-09-04T13:00:02Z,1599224403,2020,13,0,248.5417,248.5417,88.7252,120.5056,-999.00,-999.00,-999.0,no,no,no,300534061805890,unknown,unknown,unknown,North
2020-09-04T13:30:00Z,1599226200,2020,13,30,248.5625,248.5625,88.7272,120.4583,-999.00,-999.00,-999.0,no,no,no,300534061805890,unknown,unknown,unknown,North
2020-09-04T13:59:57Z,1599227997,2020,14,0,248.5833,248.5833,88.7291,120.4127,-999.00,-999.00,-999.0,no,no,no,300534061805890,unknown,unknown,unknown,North
2020-09-04T14:30:02Z,1599229803,2020,14,30,248.6042,248.6042,88.7311,120.3703,-999.00,-999.00,-999.0,no,no,no,300534061805890,unknown,unknown,unknown,North
2020-09-04T15:00:00Z,1599231600,2020,15,0,248.625,248.625,88.7331,120.334,-999.00,-999.00,-999.0,no,no,no,300534061805890,unknown,unknown,unknown,North
2020-09-04T15:29:57Z,1599233397,2020,15,30,248.6458,248.6458,88.7349,120.2973,-999.00,-999.00,-999.0,no,no,no,300534061805890,unknown,unknown,unknown,North
2020-09-04T16:00:02Z,1599235203,2020,16,0,248.6667,248.6667,88.7368,120.2605,-999.00,-999.00,-999.0,no,no,no,300534061805890,unknown,unknown,unknown,North
2020-09-04T16:30:00Z,1599237000,2020,16,30,248.6875,248.6875,88.7385,120.2268,-999.00,-999.00,-999.0,no,no,no,300534061805890,unknown,unknown,unknown,North
2020-09-04T16:59:57Z,1599238797,2020,17,0,248.7083,248.7083,88.7401,120.1969,-999.00,-999.00,-999.0,no,no,no,300534061805890,unknown,unknown,unknown,North
2020-09-04T17:30:02Z,1599240603,2020,17,30,248.7292,248.7292,88.7414,120.1688,-999.00,-999.00,-999.0,no,no,no,300534061805890,unknown,unknown,unknown,North
2020-09-04T18:00:00Z,1599242400,2020,18,0,248.75,248.75,88.7426,120.1418,-999.00,-999.00,-999.0,no,no,no,300534061805890,unknown,unknown,unknown,North
2020-09-04T18:29:57Z,1599244197,2020,18,30,248.7708,248.7708,88.7435,120.1101,-999.00,-999.00,-999.0,no,no,no,300534061805890,unknown,unknown,unknown,North
2020-09-04T19:00:02Z,1599246003,2020,19,0,248.7917,248.7917,88.7442,120.0752,-999.00,-999.00,-999.0,no,no,no,300534061805890,unknown,unknown,unknown,North
2020-09-04T19:30:00Z,1599247800,2020,19,30,248.8125,248.8125,88.7447,120.0378,-999.00,-999.00,-999.0,no,no,no,300534061805890,unknown,unknown,unknown,North
2020-09-04T19:59:57Z,1599249597,2020,20,0,248.8333,248.8333,88.7451,119.9964,-999.00,-999.00,-999.0,no,no,no,300534061805890,unknown,unknown,unknown,North
2020-09-04T20:30:02Z,1599251403,2020,20,30,248.8542,248.8542,88.7453,119.9529,-999.00,-999.00,-999.0,no,no,no,300534061805890,unknown,unknown,unknown,North
2020-09-04T21:00:00Z,1599253200,2020,21,0,248.875,248.875,88.7455,119.9082,-999.00,-999.00,-999.0,no,no,no,300534061805890,unknown,unknown,unknown,North
2020-09-04T21:29:57Z,1599254997,2020,21,30,248.8958,248.8958,88.7455,119.8622,-999.00,-999.00,-999.0,no,no,no,300534061805890,unknown,unknown,unknown,North
2020-09-04T22:00:02Z,1599256803,2020,22,0,248.9167,248.9167,88.7456,119.814,-999.00,-999.00,-999.0,no,no,no,300534061805890,unknown,unknown,unknown,North
2020-09-04T22:30:00Z,1599258600,2020,22,30,248.9375,248.9375,88.7456,119.7652,-999.00,-999.00,-999.0,no,no,no,300534061805890,unknown,unknown,unknown,North
2020-09-04T22:59:57Z,1599260397,2020,23,0,248.9583,248.9583,88.7456,119.7147,-999.00,-999.00,-999.0,no,no,no,300534061805890,unknown,unknown,unknown,North
2020-09-04T23:30:02Z,1599262203,2020,23,30,248.9792,248.9792,88.7455,119.6655,-999.00,-999.00,-999.0,no,no,no,300534061805890,unknown,unknown,unknown,North
2020-09-05T00:00:00Z,1599264000,2020,0,0,249.0,249.0,88.7456,119.619,-999.00,-999.00,-999.0,no,no,no,300534061805890,unknown,unknown,unknown,North
2020-09-05T00:29:57Z,1599265797,2020,0,30,249.0208,249.0208,88.7457,119.5754,-999.00,-999.00,-999.0,no,no,no,300534061805890,unknown,unknown,unknown,North
2020-09-05T01:00:02Z,1599267603,2020,1,0,249.0417,249.0417,88.7458,119.5377,-999.00,-999.00,-999.0,no,no,no,300534061805890,unknown,unknown,unknown,North
2020-09-05T01:30:00Z,1599269400,2020,1,30,249.0625,249.0625,88.746,119.5055,-999.00,-999.00,-999.0,no,no,no,300534061805890,unknown,unknown,unknown,North
2020-09-05T01:59:57Z,1599271197,2020,2,0,249.0833,249.0833,88.7462,119.4799,-999.00,-999.00,-999.0,no,no,no,300534061805890,unknown,unknown,unknown,North
2020-09-05T02:30:02Z,1599273003,2020,2,30,249.1042,249.1042,88.7464,119.4596,-999.00,-999.00,-999.0,no,no,no,300534061805890,unknown,unknown,unknown,North
2020-09-05T03:00:00Z,1599274800,2020,3,0,249.125,249.125,88.7466,119.443,-999.00,-999.00,-999.0,no,no,no,300534061805890,unknown,unknown,unknown,North
2020-09-05T03:29:57Z,1599276597,2020,3,30,249.1458,249.1458,88.7467,119.4329,-999.00,-999.00,-999.0,no,no,no,300534061805890,unknown,unknown,unknown,North
2020-09-05T04:00:02Z,1599278403,2020,4,0,249.1667,249.1667,88.7468,119.4303,-999.00,-999.00,-999.0,no,no,no,300534061805890,unknown,unknown,unknown,North
2020-09-05T04:30:00Z,1599280200,2020,4,30,249.1875,249.1875,88.7469,119.4352,-999.00,-999.00,-999.0,no,no,no,300534061805890,unknown,unknown,unknown,North
2020-09-05T04:59:57Z,1599281997,2020,5,0,249.2083,249.2083,88.7468,119.4426,-999.00,-999.00,-999.0,no,no,no,300534061805890,unknown,unknown,unknown,North
2020-09-05T05:30:02Z,1599283803,2020,5,30,249.2292,249.2292,88.7467,119.4489,-999.00,-999.00,-999.0,no,no,no,300534061805890,unknown,unknown,unknown,North
2020-09-05T06:00:00Z,1599285600,2020,6,0,249.25,249.25,88.7465,119.4611,-999.00,-999.00,-999.0,no,no,no,300534061805890,unknown,unknown,unknown,North
2020-09-05T06:29:57Z,1599287397,2020,6,30,249.2708,249.2708,88.7461,119.4703,-999.00,-999.00,-999.0,no,no,no,300534061805890,unknown,unknown,unknown,North
2020-09-05T07:00:02Z,1599289203,2020,7,0,249.2917,249.2917,88.7457,119.4767,-999.00,-999.00,-999.0,no,no,no,300534061805890,unknown,unknown,unknown,North
2020-09-05T07:30:00Z,1599291000,2020,7,30,249.3125,249.3125,88.7452,119.4773,-999.00,-999.00,-999.0,no,no,no,300534061805890,unknown,unknown,unknown,North
2020-09-05T07:59:57Z,1599292797,2020,8,0,249.3333,249.3333,88.7447,119.4709,-999.00,-999.00,-999.0,no,no,no,300534061805890,unknown,unknown,unknown,North
2020-09-05T08:30:02Z,1599294603,2020,8,30,249.3542,249.3542,88.7443,119.4565,-999.00,-999.00,-999.0,no,no,no,300534061805890,unknown,unknown,unknown,North
2020-09-05T09:00:00Z,1599296400,2020,9,0,249.375,249.375,88.7438,119.4339,-999.00,-999.00,-999.0,no,no,no,300534061805890,unknown,unknown,unknown,North
2020-09-05T09:29:57Z,1599298197,2020,9,30,249.3958,249.3958,88.7434,119.4066,-999.00,-999.00,-999.0,no,no,no,300534061805890,unknown,unknown,unknown,North
2020-09-05T10:00:02Z,1599300003,2020,10,0,249.4167,249.4167,88.7431,119.375,-999.00,-999.00,-999.0,no,no,no,300534061805890,unknown,unknown,unknown,North
2020-09-05T10:30:00Z,1599301800,2020,10,30,249.4375,249.4375,88.743,119.343,-999.00,-999.00,-999.0,no,no,no,300534061805890,unknown,unknown,unknown,North
2020-09-05T10:59:57Z,1599303597,2020,11,0,249.4583,249.4583,88.743,119.3052,-999.00,-999.00,-999.0,no,no,no,300534061805890,unknown,unknown,unknown,North
2020-09-05T11:30:02Z,1599305403,2020,11,30,249.4792,249.4792,88.7429,119.2654,-999.00,-999.00,-999.0,no,no,no,300534061805890,unknown,unknown,unknown,North
2020-09-05T12:00:00Z,1599307200,2020,12,0,249.5,249.5,88.7429,119.237,-999.00,-999.00,-999.0,no,no,no,300534061805890,unknown,unknown,unknown,North
2020-09-05T12:29:57Z,1599308997,2020,12,30,249.5208,249.5208,88.7428,119.2227,-999.00,-999.00,-999.0,no,no,no,300534061805890,unknown,unknown,unknown,North
2020-09-05T13:00:02Z,1599310803,2020,13,0,249.5417,249.5417,88.7426,119.2196,-999.00,-999.00,-999.0,no,no,no,300534061805890,unknown,unknown,unknown,North
2020-09-05T13:30:00Z,1599312600,2020,13,30,249.5625,249.5625,88.7423,119.2174,-999.00,-999.00,-999.0,no,no,no,300534061805890,unknown,unknown,unknown,North